Tracking 29892 objects as of 21-Nov-2024
HD Live streaming from Space Station
objects crossing your sky now

GLOBALSTAR M043

Track GLOBALSTAR M043 now!
10-day predictions
GLOBALSTAR M043 is classified as:


NORAD ID: 25874
Int'l Code: 1999-041C
Perigee: 2,028.2 km
Apogee: 2,049.6 km
Inclination: 51.9 °
Period: 127.9 minutes
Semi major axis: 8409 km
RCS: 2.4086 m2 (large)
Launch date: July 25, 1999
Source: Globalstar (GLOB)
Launch site: AIR FORCE EASTERN TEST RANGE (AFETR)
Your satellite tracking list
Your tracking list is empty




NASA's NSSDC Master Catalog

Two Line Element Set (TLE):
1 25874U 99041C   24325.08276564 -.00000033  00000-0  10601-2 0  9990
2 25874  51.9387 211.5914 0012757 319.7545 189.2484 11.25687694 99328
Source of the keplerian elements: AFSPC